TimePDT,TemperatureF,Dew PointF,Humidity,Sea Level PressureIn,VisibilityMPH,Wind Direction,Wind SpeedMPH,Gust SpeedMPH,PrecipitationIn,Events,Conditions,WindDirDegrees,DateUTC
12:52 AM,61.0,3.9,10,29.81,10.0,NE,4.6,-,N/A,,Clear,50,2013-04-25 07:52:00
1:52 AM,57.9,1.9,10,29.81,10.0,East,8.1,-,N/A,,Clear,90,2013-04-25 08:52:00
2:52 AM,60.1,8.1,13,29.80,10.0,NE,13.8,-,N/A,,Clear,40,2013-04-25 09:52:00
3:52 AM,57.0,10.0,15,29.80,10.0,NNE,15.0,-,N/A,,Clear,30,2013-04-25 10:52:00
4:52 AM,55.9,10.0,16,29.81,10.0,NE,13.8,-,N/A,,Clear,40,2013-04-25 11:52:00
5:52 AM,55.9,10.0,16,29.81,10.0,NE,15.0,-,N/A,,Clear,40,2013-04-25 12:52:00
7:52 AM,62.1,10.9,13,29.85,10.0,NNE,16.1,-,N/A,,Clear,30,2013-04-25 14:52:00
8:52 AM,66.0,10.9,12,29.86,10.0,NNE,15.0,-,N/A,,Clear,30,2013-04-25 15:52:00
9:52 AM,71.1,12.0,10,29.86,10.0,NNE,9.2,-,N/A,,Clear,20,2013-04-25 16:52:00
10:52 AM,72.0,9.0,9,29.86,10.0,Calm,Calm,-,N/A,,Clear,0,2013-04-25 17:52:00
11:52 AM,75.0,9.0,8,29.84,10.0,Variable,4.6,-,N/A,,Clear,0,2013-04-25 18:52:00
12:52 PM,79.0,7.0,6,29.81,10.0,North,10.4,16.1,N/A,,Clear,10,2013-04-25 19:52:00
1:52 PM,79.0,8.1,7,29.81,10.0,NE,6.9,23.0,N/A,,Clear,50,2013-04-25 20:52:00
2:52 PM,79.0,5.0,6,29.79,10.0,ESE,8.1,-,N/A,,Clear,110,2013-04-25 21:52:00
3:52 PM,82.0,7.0,6,29.77,10.0,WSW,6.9,17.3,N/A,,Clear,240,2013-04-25 22:52:00
4:52 PM,81.0,6.1,6,29.77,10.0,SW,12.7,23.0,N/A,,Clear,230,2013-04-25 23:52:00
5:43 PM,78.8,5.0,6,29.89,10.0,SW,13.8,-,N/A,,Clear,230,2013-04-26 00:43:00
5:52 PM,79.0,3.9,6,29.78,10.0,WSW,9.2,24.2,N/A,,Clear,240,2013-04-26 00:52:00
6:52 PM,77.0,3.9,6,29.78,10.0,SSW,11.5,19.6,N/A,,Clear,210,2013-04-26 01:52:00
7:52 PM,73.0,3.9,7,29.80,10.0,SW,5.8,-,N/A,,Clear,230,2013-04-26 02:52:00
8:52 PM,71.1,3.9,7,29.83,10.0,Calm,Calm,-,N/A,,Clear,0,2013-04-26 03:52:00
9:52 PM,64.9,3.9,9,29.87,10.0,NW,10.4,-,N/A,,Clear,320,2013-04-26 04:52:00
10:52 PM,64.0,6.1,10,29.87,10.0,North,4.6,-,N/A,,Clear,350,2013-04-26 05:52:00
11:52 PM,66.9,6.1,9,29.89,10.0,North,3.5,-,N/A,,Clear,10,2013-04-26 06:52:00